Temperature
21 20 19 19 18 19 22 23 25 26 26 26 27 26 25 24 23 23 23 23 23 22 21 21 21 21 21 21 21 21 21 21 20 20 20 20 20 20 20 20 20 20 20 20 20 20 20 20 20
21 20 19 19 20 22 23 25 25 26 26 27 27 26 25 23 23 23 23 23 23 22 21 21 21 21 21 21 21 21 21 21 21 20 20 20 20 20 20 20 20 20 20 20 20 20 20 20 20
21 20 20 19 21 22 25 26 26 26 27 27 26 25 24 23 24 24 24 23 22 22 21 21 21 21 21 21 21 21 21 21 21 20 20 20 20 20 20 20 20 20 20 20 20 20 20 20 20
21 20 20 19 22 23 25 26 26 26 27 27 26 24 24 24 24 24 24 23 22 22 21 21 21 21 21 21 21 21 21 21 21 20 20 20 20 20 20 20 20 20 20 20 20 20 20 20 19
21 21 20 20 22 24 25 26 27 26 26 26 25 24 24 24 24 24 24 23 23 22 21 21 21 21 21 21 21 21 21 21 21 20 20 20 20 20 20 20 20 20 20 20 20 20 19 19 19
22 20 21 22 23 25 25 26 26 26 26 26 25 24 24 24 24 24 24 23 23 22 21 21 21 21 21 21 21 21 21 21 21 21 20 20 20 20 20 20 20 20 20 19 19 19 19 19 19
22 20 22 23 24 25 26 27 26 26 26 26 26 24 23 24 24 24 24 23 23 22 22 21 21 21 21 21 21 21 21 21 21 20 20 20 20 20 20 20 19 19 19 19 19 19 19 19 19
24 20 23 23 24 25 26 27 27 26 26 27 26 24 24 25 24 23 23 23 22 22 21 21 21 21 21 21 21 21 21 21 20 20 20 20 20 20 19 19 19 19 19 19 19 19 19 18 18
24 20 21 23 24 25 26 26 27 27 26 26 27 26 26 25 24 23 22 22 22 21 21 21 21 21 21 21 21 21 20 20 20 20 20 20 20 19 19 19 19 19 19 18 18 18 18 18 18
23 20 22 24 25 25 25 26 26 26 25 26 27 26 26 25 24 23 23 22 22 22 21 21 21 21 21 20 20 20 20 20 20 20 20 19 19 19 19 19 19 18 18 18 18 18 18 18 18
22 22 23 25 27 26 25 26 26 25 25 26 27 27 26 25 24 23 23 23 23 22 22 21 21 21 20 20 20 20 20 20 20 20 19 19 19 19 19 19 18 18 18 18 18 18 18 18 18
23 23 25 26 27 26 25 26 25 25 27 28 28 27 26 24 23 23 22 22 22 22 21 21 21 20 20 20 20 20 20 20 20 19 19 19 19 19 18 18 18 18 18 18 18 18 18 18 18
23 24 25 26 26 25 26 25 25 26 27 27 27 26 24 23 23 22 22 21 21 21 21 21 20 20 20 20 20 20 20 20 20 19 19 19 19 19 18 18 18 18 18 18 18 18 18 18 18
24 24 24 25 25 26 25 24 23 24 26 26 25 24 23 22 22 21 20 21 21 21 20 20 20 20 20 20 20 19 19 19 19 19 19 18 18 18 18 18 18 18 18 18 17 17 17 17 17
23 22 22 23 24 25 24 22 21 22 23 23 22 22 21 21 21 20 20 20 20 20 20 20 20 20 19 19 19 19 19 19 19 19 19 18 18 18 18 18 18 18 18 17 17 17 17 17 17
23 22 23 23 22 23 23 20 19 20 21 20 19 19 19 19 20 20 20 20 20 20 19 19 19 19 19 19 19 18 18 18 18 18 18 18 18 18 18 18 18 17 17 17 17 17 17 17 17
21 22 23 22 21 21 19 18 18 18 18 17 17 18 18 18 19 19 19 20 20 19 19 19 19 19 19 19 18 18 17 17 17 18 18 17 17 17 18 18 18 17 17 17 17 17 17 17 17
22 23 23 22 21 19 18 17 17 17 17 16 16 16 16 17 17 18 18 19 19 19 19 19 18 19 18 18 18 17 17 17 17 17 17 17 17 17 17 18 17 17 17 17 17 17 17 17 17
23 23 22 22 21 19 17 17 17 16 16 16 15 15 15 15 16 17 17 18 18 18 18 18 17 18 17 17 17 16 16 16 16 17 17 17 17 17 17 18 18 18 18 17 17 17 17 17 17
22 22 22 22 21 19 17 17 17 16 15 15 14 14 15 15 16 17 17 17 17 18 17 17 17 17 17 16 16 16 16 16 16 16 17 17 17 17 17 18 18 18 18 17 17 17 17 17 16
23 23 23 22 21 19 19 18 16 16 16 15 14 15 15 15 16 16 16 17 17 17 17 17 17 16 16 16 16 16 16 16 16 16 17 17 17 17 17 17 18 18 18 17 17 17 17 16 16
24 24 24 23 21 19 19 18 17 16 15 15 14 14 15 15 15 16 16 16 17 17 16 16 16 16 16 16 16 16 16 16 16 16 16 17 17 17 17 17 17 17 17 17 17 17 16 16 16
24 22 22 21 20 18 18 17 17 16 16 15 14 14 14 15 15 15 15 16 16 16 16 16 16 16 16 16 16 15 15 15 15 15 16 16 16 16 16 16 16 16 16 16 16 16 16 16 16
23 21 19 17 17 18 18 18 17 16 16 15 15 14 15 15 15 15 16 16 16 16 16 16 16 16 16 16 15 15 15 15 15 15 15 15 15 15 15 15 16 16 16 16 16 15 15 15 16
21 20 19 19 17 18 17 17 17 16 16 15 15 15 15 15 15 15 16 16 16 16 16 16 16 16 15 15 15 15 15 15 14 14 14 14 14 14 14 14 15 15 15 15 15 15 15 15 15
21 20 19 19 18 17 17 17 16 16 16 16 15 15 15 15 15 16 16 16 16 16 16 16 15 15 15 15 14 14 14 14 14 13 13 13 13 13 13 13 13 13 14 14 14 14 14 14 14
22 18 18 16 17 17 17 17 16 15 15 15 15 15 15 15 15 15 16 16 15 15 15 15 15 15 14 14 14 14 13 13 13 13 12 12 12 12 12 12 12 12 12 13 13 13 14 14 14
20 17 16 16 17 18 18 17 16 16 15 14 14 15 15 15 15 15 15 15 15 15 15 14 14 14 14 14 13 13 13 13 12 12 12 11 11 11 11 11 11 11 11 11 12 12 12 13 13
20 19 15 14 16 17 17 17 16 15 14 14 14 15 15 15 15 15 15 15 15 14 14 14 14 13 13 13 13 13 12 12 12 11 11 11 11 10 10 10 10 10 10 11 11 11 11 11 12
20 19 17 17 16 15 15 15 15 14 14 14 15 15 15 15 15 15 15 14 14 14 13 13 13 13 13 13 12 12 12 12 11 11 11 11 10 10 10 10 10 10 10 10 10 10 10 11 11
Wind_Speed
17 14 5 3 1 0 4 5 4 4 4 2 2 3 4 5 5 3 1 12 17 16 17 22 22 21 20 19 18 18 17 17 17 16 16 16 16 15 15 14 13 12 11 10 10 10 10 9 10
11 7 2 2 1 2 5 4 3 2 1 1 3 3 4 1 1 4 6 9 17 16 16 19 23 22 20 19 18 17 17 16 16 16 15 15 15 14 14 13 12 12 11 10 10 9 9 9 9
7 3 3 2 1 3 5 4 2 0 1 1 3 4 2 1 4 7 6 13 15 13 14 19 24 22 21 19 18 17 16 16 15 15 15 14 14 13 13 12 12 11 11 10 10 9 9 9 9
5 2 3 2 5 6 5 4 2 1 1 3 4 3 2 2 6 7 13 16 16 13 13 19 24 22 21 20 18 17 16 16 15 15 14 14 13 13 12 12 11 11 10 10 10 9 9 9 8
3 3 3 2 6 6 5 4 3 1 1 2 4 4 1 3 7 13 16 17 17 13 12 17 23 22 21 20 19 18 17 16 15 15 14 14 13 13 12 12 11 11 10 10 10 9 9 9 9
4 4 2 3 6 6 5 3 2 1 1 2 4 3 1 3 9 14 16 15 15 15 11 15 22 22 21 20 19 18 17 17 16 15 15 14 14 13 13 12 12 12 11 11 11 10 10 10 10
4 4 3 4 5 6 4 2 0 1 2 2 5 4 1 4 7 11 12 13 12 13 10 10 16 19 21 20 19 18 17 17 16 16 15 15 14 14 13 13 12 12 12 12 12 12 11 11 11
5 4 2 3 4 6 4 2 2 2 3 1 4 6 5 6 10 10 10 10 11 12 10 8 10 13 14 16 18 18 18 17 17 16 16 15 15 14 14 14 13 13 13 13 14 14 13 13 13
4 4 3 5 5 6 4 3 4 1 1 1 3 4 5 15 16 12 10 9 11 13 10 8 7 8 10 12 15 17 17 17 17 16 16 15 13 12 12 14 14 15 15 16 16 16 15 15 15
5 4 8 6 5 6 6 5 4 1 2 3 2 3 11 19 17 16 15 15 15 15 14 10 8 7 7 10 10 10 11 11 12 11 12 11 10 11 12 12 15 16 16 16 17 17 16 16 13
6 7 6 7 7 6 5 4 2 4 6 9 7 7 15 17 15 14 13 13 13 11 12 10 9 7 6 5 4 5 6 7 9 10 11 10 9 9 11 9 11 13 14 13 13 13 12 12 12
3 7 6 6 4 3 4 3 3 6 10 5 4 9 12 15 13 12 10 8 7 7 8 7 8 7 6 5 3 3 4 5 6 9 11 9 6 6 7 7 9 9 9 8 8 7 9 10 11
4 6 6 7 9 6 5 4 3 6 8 3 6 10 10 10 8 7 7 7 7 6 6 6 6 6 5 4 3 4 4 5 7 8 10 12 7 7 7 6 7 7 7 6 5 5 5 6 7
5 6 9 10 8 4 4 2 3 8 4 5 9 9 9 8 8 8 7 7 7 7 7 6 6 6 4 4 4 3 3 5 6 7 10 12 11 7 7 6 5 5 6 6 5 4 4 4 4
3 6 10 6 4 3 4 5 8 12 4 8 10 10 11 10 9 7 6 5 6 6 6 6 6 5 4 3 3 3 4 5 4 6 8 10 11 10 7 6 5 4 5 4 3 2 2 2 3
3 4 5 7 8 5 5 3 13 14 8 10 11 12 12 11 10 8 5 4 4 5 5 4 3 4 4 4 4 3 4 4 5 6 6 10 13 12 6 6 5 4 3 2 2 2 2 2 3
5 4 4 8 10 6 8 6 11 13 12 14 13 12 12 12 12 9 7 5 4 4 5 4 2 3 3 3 3 4 4 4 4 4 4 7 10 10 6 5 4 4 3 2 2 2 2 2 3
3 3 3 4 6 11 11 9 11 12 13 14 13 12 12 12 10 8 8 7 6 6 5 3 1 1 1 1 1 1 2 2 2 3 4 6 7 7 5 4 5 5 4 3 2 2 2 2 2
2 2 3 1 2 8 11 11 12 12 13 14 12 11 11 10 8 8 9 8 8 7 6 6 4 3 2 1 1 0 2 2 2 3 5 7 7 6 5 5 5 5 4 4 4 2 2 1 0
3 1 0 2 5 6 8 10 9 11 11 10 10 10 9 8 8 8 9 9 8 7 7 7 6 6 5 2 1 1 1 1 2 2 3 5 5 5 5 6 6 5 4 4 4 3 2 1 1
2 4 4 4 3 4 5 5 5 5 8 9 10 8 8 8 8 8 8 8 7 8 7 6 6 6 6 5 2 1 1 1 1 2 2 3 4 4 3 5 5 5 5 5 5 4 4 2 1
2 3 3 4 4 1 2 1 2 2 5 7 8 7 7 7 7 6 6 6 6 5 5 5 5 5 5 5 4 4 2 2 2 3 2 3 2 1 2 3 4 5 4 5 5 5 3 4 2
2 3 4 3 4 4 5 3 3 0 1 2 3 3 4 5 4 4 4 4 4 3 4 3 4 5 5 6 5 5 4 2 2 3 4 3 3 3 3 2 2 3 4 5 5 5 5 4 4
3 6 6 6 5 3 3 1 3 3 3 3 2 0 1 2 2 2 2 2 2 3 2 2 4 4 4 5 5 5 4 3 3 4 4 3 3 3 4 3 2 2 2 4 5 5 6 6 5
6 6 5 6 5 3 2 1 5 2 3 4 4 3 2 2 3 3 3 3 3 2 2 1 1 1 1 2 3 3 3 3 2 1 2 2 2 2 4 4 3 2 2 2 3 5 6 6 6
2 6 6 4 4 4 3 3 4 2 3 3 2 2 3 4 5 6 6 6 6 6 4 3 3 2 2 2 2 2 2 2 1 1 1 1 1 2 2 2 3 3 3 2 2 4 5 5 6
3 4 4 6 2 1 4 4 4 2 1 2 2 2 5 6 7 7 8 8 8 8 7 6 6 6 6 5 5 5 4 4 4 4 3 2 3 3 2 2 3 3 3 2 2 3 4 4 6
5 7 5 4 3 2 4 4 4 3 4 3 4 5 6 6 7 8 8 8 7 7 8 7 8 8 8 7 7 6 6 6 6 5 5 5 5 4 4 4 4 3 3 3 2 3 3 4 5
6 5 6 4 4 3 3 5 2 4 3 3 4 4 6 7 8 8 8 7 7 7 8 8 9 9 9 9 8 8 8 7 6 6 8 7 6 6 6 5 5 5 4 4 3 4 4 5 5
3 3 4 3 1 2 2 5 4 3 2 0 2 3 5 6 7 8 8 8 8 8 9 9 10 10 11 10 9 10 9 8 8 9 9 8 8 8 7 7 6 6 6 5 5 5 5 5 6
Wind_Direction
142 140 135 133 114 320 272 259 250 311 345 358 113 145 149 157 186 215 81 143 140 149 159 164 162 158 155 152 150 149 148 148 148 149 151 153 155 158 159 160 161 161 159 156 153 150 147 145 142
142 148 139 115 123 338 285 260 288 309 191 75 58 63 64 81 68 112 129 142 143 148 157 162 163 160 157 155 153 153 154 155 155 155 157 158 160 162 164 165 166 166 164 162 162 160 157 154 153
153 168 124 116 197 220 270 280 269 293 146 108 74 57 75 195 147 156 155 143 140 147 155 165 164 162 160 158 158 159 161 162 162 163 164 166 168 170 171 172 173 173 173 173 173 172 169 166 166
146 87 73 69 264 246 244 272 277 272 84 76 106 81 67 44 159 155 144 146 145 148 155 168 166 165 164 163 163 165 168 169 171 172 173 175 177 178 179 180 182 183 184 184 184 184 182 180 180
88 98 65 315 271 267 260 260 266 280 60 78 115 121 82 21 116 136 146 151 153 153 158 171 168 168 168 168 169 172 174 177 180 182 183 185 186 188 189 190 192 194 195 196 197 197 196 196 195
81 82 90 277 276 282 281 273 328 324 184 119 112 127 193 115 135 149 152 154 156 158 160 171 171 172 172 173 175 178 181 184 188 190 192 193 195 197 199 200 202 204 206 208 209 210 210 211 210
134 132 201 247 282 296 289 305 256 258 259 197 139 141 202 160 159 149 147 145 151 159 159 168 173 175 177 179 181 185 188 191 195 198 200 201 203 206 209 211 214 217 218 220 222 222 222 222 223
156 131 232 262 267 278 294 319 271 221 239 170 140 163 212 178 141 131 128 135 151 163 167 168 169 173 176 182 188 191 195 198 202 205 207 210 212 215 219 221 225 228 231 231 232 232 232 231 231
122 93 231 240 239 267 292 298 293 280 194 220 191 189 177 135 136 135 136 146 164 174 177 171 167 168 173 181 194 198 203 206 208 212 216 217 219 224 228 231 233 237 239 240 240 239 238 237 236
119 173 230 232 226 262 281 258 250 298 288 270 261 106 126 138 151 157 164 171 177 182 184 182 176 171 172 189 199 204 209 212 213 216 223 223 220 225 233 239 243 245 247 249 247 245 243 242 238
169 204 242 261 260 261 263 260 205 173 240 232 221 163 148 152 161 168 174 178 181 179 183 187 185 177 181 192 197 205 213 216 220 221 223 227 227 230 237 238 248 253 256 254 250 248 239 234 232
230 245 245 268 279 280 243 239 213 209 234 246 197 148 153 159 167 172 173 169 156 162 178 179 183 186 191 195 210 209 213 220 225 228 226 225 229 229 232 236 239 242 246 246 242 237 237 235 235
251 266 272 266 277 253 241 239 240 261 271 356 92 119 140 152 156 144 137 134 136 152 168 170 171 185 197 201 219 220 221 226 233 235 233 229 228 234 231 234 237 239 239 237 234 228 230 232 234
261 277 285 281 268 239 184 330 5 307 324 70 94 103 113 118 118 111 114 126 142 158 166 161 162 171 189 208 221 242 247 241 238 238 243 238 235 235 233 231 230 232 230 229 225 220 223 231 233
300 305 310 299 301 278 127 29 354 328 43 89 88 88 83 76 79 90 109 123 142 153 157 155 167 160 168 198 222 241 257 249 237 237 247 250 245 238 228 228 225 224 223 217 219 225 218 229 235
13 8 325 320 347 355 105 43 359 353 58 73 74 76 75 64 59 64 80 106 131 133 135 149 167 159 171 196 210 232 244 240 240 232 238 247 244 237 217 212 216 208 197 188 193 203 203 224 233
26 5 320 333 5 34 72 59 0 11 57 68 67 71 72 61 48 43 54 74 94 109 119 128 151 170 189 212 213 203 225 236 239 234 226 239 241 231 208 200 201 184 171 181 196 189 193 209 233
300 323 332 355 20 62 75 60 24 25 55 64 64 66 65 60 46 37 42 54 63 68 70 65 56 68 129 191 236 209 213 235 249 234 222 226 233 223 199 193 191 176 169 175 181 184 188 207 235
236 263 308 315 109 74 75 62 35 27 45 53 54 56 58 57 52 44 40 41 45 42 41 40 11 5 20 11 346 334 249 250 252 242 228 222 218 210 194 193 190 185 180 181 181 167 165 195 191
198 196 204 75 97 103 93 69 47 38 44 46 50 52 53 48 41 40 42 40 37 35 30 38 22 16 11 354 13 259 258 257 247 246 234 227 218 213 207 197 194 186 175 171 175 159 154 178 156
194 187 202 173 108 89 111 57 32 37 44 48 47 47 46 46 40 29 31 34 35 39 32 34 34 27 15 5 15 352 6 344 297 276 263 257 239 224 213 207 200 187 176 184 187 171 165 177 197
256 241 186 160 131 71 95 129 318 13 28 33 33 32 29 28 35 34 31 30 30 38 47 46 41 41 29 27 39 43 34 359 324 315 322 323 323 301 262 225 208 200 192 191 192 180 172 165 187
208 58 81 90 114 77 32 106 268 213 9 13 23 29 23 18 26 32 25 21 23 34 53 56 58 51 43 50 54 58 51 27 351 3 4 358 358 9 4 329 250 218 210 206 200 185 184 181 182
114 74 56 51 68 54 335 120 260 226 199 190 200 172 6 346 343 351 346 347 2 9 26 41 62 54 47 62 66 74 71 49 39 24 12 1 354 3 7 352 326 263 228 221 216 208 199 198 195
63 74 26 3 8 267 295 180 244 214 162 177 194 202 238 270 280 282 285 295 291 285 278 315 80 65 35 72 85 100 109 95 80 40 4 355 346 338 343 346 331 310 276 245 224 220 218 206 205
67 120 147 210 237 278 334 259 261 155 140 141 155 188 226 256 264 266 266 265 264 264 262 258 244 239 242 225 219 212 185 171 189 208 226 261 268 277 295 317 322 320 309 290 246 232 230 219 218
91 75 137 130 119 329 297 301 321 134 184 195 199 217 245 258 264 265 264 262 262 263 262 258 255 256 251 243 239 242 234 223 225 230 232 242 254 265 277 297 308 304 307 303 284 255 250 234 228
84 132 88 100 127 295 307 306 291 278 255 237 228 236 252 262 269 272 270 267 268 267 269 269 258 255 256 252 246 244 239 236 233 231 237 241 245 248 264 273 277 286 290 287 282 271 268 259 247
20 52 85 96 131 151 285 289 305 286 272 229 236 251 262 268 271 274 276 277 277 275 269 266 265 264 264 259 254 254 253 248 245 242 243 240 242 242 244 248 254 259 264 263 261 264 262 256 262
65 62 127 121 159 149 190 272 337 355 27 105 284 299 298 291 286 284 281 282 281 278 275 268 264 261 261 261 261 257 257 253 248 246 247 241 240 240 238 237 242 248 248 240 240 252 251 248 253
Height
1505 1507 1510 1513 1515 1518 1514 1501 1491 1486 1483 1482 1482 1484 1484 1486 1491 1493 1485 1485 1489 1494 1499 1503 1508 1512 1515 1518 1520 1523 1525 1527 1529 1531 1532 1534 1535 1537 1538 1539 1540 1541 1542 1543 1544 1545 1546 1547 1548
1506 1508 1512 1513 1516 1521 1509 1493 1489 1485 1483 1482 1483 1484 1484 1484 1484 1484 1483 1486 1491 1495 1499 1504 1508 1512 1516 1518 1521 1523 1525 1528 1530 1531 1533 1535 1536 1538 1539 1540 1541 1542 1543 1544 1545 1546 1547 1548 1549
1507 1509 1512 1513 1515 1515 1503 1489 1486 1483 1483 1482 1483 1484 1485 1485 1484 1484 1485 1489 1493 1497 1501 1505 1509 1513 1516 1519 1522 1524 1526 1528 1530 1532 1534 1535 1537 1538 1540 1541 1542 1543 1544 1545 1546 1547 1548 1548 1549
1507 1510 1511 1515 1512 1501 1493 1486 1484 1483 1482 1482 1483 1485 1485 1486 1486 1486 1488 1491 1495 1499 1503 1506 1510 1513 1517 1520 1522 1525 1527 1529 1531 1532 1534 1536 1537 1539 1540 1541 1542 1543 1544 1545 1546 1547 1548 1549 1549
1507 1508 1513 1517 1509 1495 1487 1484 1483 1482 1481 1482 1482 1484 1485 1486 1486 1488 1490 1492 1496 1499 1504 1507 1511 1514 1517 1520 1523 1525 1527 1529 1531 1533 1534 1536 1537 1539 1540 1541 1542 1543 1544 1545 1546 1547 1548 1549 1549
1507 1508 1518 1518 1505 1492 1486 1483 1483 1482 1481 1481 1482 1483 1484 1485 1487 1489 1491 1494 1497 1500 1504 1508 1511 1515 1518 1521 1523 1525 1527 1529 1531 1533 1534 1536 1537 1539 1540 1541 1542 1543 1544 1545 1545 1546 1547 1548 1549
1506 1510 1513 1509 1504 1495 1485 1483 1483 1482 1481 1481 1481 1483 1483 1485 1487 1490 1492 1494 1497 1501 1504 1508 1511 1514 1518 1520 1523 1525 1527 1529 1531 1533 1534 1536 1537 1538 1539 1540 1541 1542 1543 1543 1544 1545 1546 1547 1547
1503 1507 1508 1508 1503 1495 1485 1483 1482 1482 1481 1481 1481 1482 1482 1484 1486 1489 1492 1495 1498 1501 1504 1507 1511 1514 1517 1520 1523 1525 1527 1529 1530 1532 1533 1535 1536 1537 1538 1539 1539 1540 1541 1542 1542 1543 1544 1545 1545
1501 1510 1513 1504 1499 1492 1485 1483 1481 1481 1480 1480 1479 1480 1481 1483 1485 1488 1491 1494 1497 1500 1504 1507 1510 1513 1517 1520 1522 1524 1526 1527 1529 1531 1532 1533 1534 1535 1536 1537 1538 1538 1539 1539 1540 1541 1542 1542 1543
1500 1510 1504 1494 1490 1488 1484 1483 1481 1480 1480 1479 1478 1479 1480 1482 1483 1485 1488 1491 1494 1498 1502 1506 1510 1513 1516 1519 1521 1523 1525 1526 1528 1529 1531 1532 1533 1534 1534 1535 1536 1536 1537 1537 1538 1538 1539 1539 1540
1497 1500 1493 1488 1486 1485 1483 1481 1481 1481 1480 1477 1476 1477 1478 1480 1483 1485 1488 1491 1494 1498 1502 1505 1509 1512 1515 1518 1521 1522 1524 1525 1527 1528 1529 1530 1531 1532 1532 1533 1533 1534 1534 1535 1535 1535 1536 1537 1537
1495 1492 1489 1486 1484 1483 1482 1480 1480 1479 1476 1476 1476 1477 1478 1480 1483 1486 1489 1493 1496 1499 1502 1505 1508 1511 1514 1516 1519 1521 1522 1523 1525 1526 1527 1528 1528 1529 1530 1530 1531 1531 1531 1532 1532 1532 1533 1533 1534
1492 1490 1486 1484 1482 1480 1480 1480 1479 1477 1476 1476 1476 1477 1479 1482 1485 1489 1492 1495 1498 1500 1503 1505 1508 1511 1513 1515 1517 1519 1520 1521 1522 1523 1524 1525 1526 1526 1527 1527 1527 1528 1528 1528 1529 1529 1529 1530 1530
1490 1488 1484 1480 1478 1477 1478 1480 1481 1479 1476 1476 1476 1479 1481 1484 1487 1490 1493 1495 1498 1500 1502 1505 1506 1509 1512 1513 1514 1516 1517 1518 1519 1519 1521 1522 1523 1524 1524 1524 1524 1524 1524 1525 1525 1525 1526 1526 1526
1489 1488 1483 1478 1477 1475 1477 1485 1486 1482 1477 1476 1478 1481 1483 1487 1489 1491 1493 1495 1497 1500 1502 1503 1505 1506 1508 1510 1511 1512 1513 1514 1515 1515 1516 1517 1519 1520 1521 1521 1521 1521 1521 1521 1521 1521 1522 1522 1522
1488 1492 1493 1483 1479 1477 1483 1498 1493 1486 1480 1480 1482 1484 1486 1489 1491 1492 1493 1495 1497 1499 1501 1503 1503 1504 1504 1505 1505 1506 1507 1507 1509 1510 1511 1513 1515 1516 1518 1517 1517 1517 1517 1517 1517 1518 1518 1518 1518
1497 1502 1498 1490 1484 1482 1489 1501 1498 1492 1486 1485 1486 1487 1489 1490 1492 1493 1494 1495 1496 1498 1499 1501 1501 1501 1501 1501 1500 1498 1499 1501 1503 1505 1507 1509 1511 1512 1514 1513 1513 1513 1513 1513 1513 1514 1514 1514 1514
1502 1500 1498 1497 1493 1491 1497 1504 1500 1497 1492 1491 1491 1491 1491 1491 1493 1494 1495 1495 1496 1497 1498 1499 1499 1497 1496 1496 1494 1491 1492 1495 1498 1499 1502 1505 1507 1509 1510 1510 1509 1509 1509 1509 1510 1510 1510 1511 1511
1493 1497 1500 1495 1493 1498 1504 1506 1504 1501 1496 1495 1495 1495 1495 1495 1496 1496 1496 1496 1496 1497 1497 1496 1497 1494 1493 1492 1491 1490 1490 1492 1495 1497 1499 1501 1503 1505 1506 1506 1507 1506 1506 1506 1506 1507 1507 1508 1508
1493 1497 1498 1495 1494 1499 1506 1508 1506 1504 1502 1501 1500 1499 1499 1498 1497 1497 1497 1496 1497 1497 1497 1495 1494 1491 1490 1490 1489 1490 1490 1492 1494 1495 1497 1498 1500 1501 1502 1503 1503 1503 1503 1503 1503 1504 1505 1505 1505
1490 1493 1493 1495 1496 1499 1503 1511 1510 1507 1506 1505 1503 1502 1501 1501 1500 1499 1498 1498 1498 1497 1497 1495 1494 1493 1492 1490 1490 1490 1490 1491 1492 1493 1493 1495 1497 1498 1499 1500 1501 1501 1501 1501 1501 1502 1502 1502 1503
1491 1483 1485 1489 1499 1509 1506 1521 1513 1510 1509 1508 1507 1505 1504 1504 1502 1502 1501 1500 1499 1498 1497 1497 1496 1495 1493 1491 1490 1490 1489 1489 1490 1489 1490 1492 1493 1494 1495 1497 1497 1498 1498 1498 1499 1499 1500 1500 1500
1484 1483 1486 1491 1499 1511 1512 1519 1518 1511 1512 1511 1510 1508 1507 1507 1505 1504 1503 1502 1501 1499 1498 1498 1497 1495 1494 1492 1492 1490 1489 1488 1488 1488 1488 1489 1489 1490 1491 1492 1493 1493 1494 1494 1495 1495 1496 1497 1497
1481 1487 1494 1502 1508 1520 1517 1519 1519 1513 1511 1511 1510 1509 1508 1508 1507 1506 1505 1503 1502 1501 1499 1498 1497 1495 1493 1492 1491 1490 1489 1487 1486 1485 1485 1485 1485 1486 1486 1487 1488 1488 1489 1489 1490 1492 1492 1493 1494
1485 1500 1518 1520 1529 1525 1516 1518 1517 1508 1507 1508 1509 1509 1509 1509 1508 1507 1506 1504 1503 1501 1499 1498 1496 1494 1493 1491 1489 1488 1486 1485 1483 1482 1482 1481 1481 1481 1481 1481 1482 1482 1483 1484 1485 1487 1488 1489 1489
1490 1499 1520 1529 1531 1526 1518 1519 1513 1506 1507 1507 1508 1509 1509 1509 1508 1507 1506 1504 1502 1500 1499 1497 1495 1493 1491 1490 1488 1486 1484 1482 1481 1479 1478 1477 1476 1476 1475 1475 1475 1476 1477 1477 1478 1480 1482 1483 1484
1492 1502 1504 1520 1523 1528 1523 1516 1509 1507 1507 1508 1508 1509 1509 1508 1508 1506 1504 1503 1501 1499 1497 1495 1493 1491 1489 1487 1485 1483 1481 1480 1478 1476 1475 1473 1472 1471 1470 1470 1469 1470 1470 1471 1472 1473 1475 1476 1478
1491 1500 1512 1521 1529 1531 1523 1520 1518 1509 1508 1507 1507 1507 1507 1507 1506 1504 1503 1501 1498 1496 1494 1492 1490 1488 1486 1483 1481 1479 1478 1476 1474 1472 1471 1470 1469 1467 1466 1465 1464 1464 1464 1465 1465 1466 1467 1469 1471
1498 1502 1513 1523 1523 1531 1532 1526 1511 1509 1507 1507 1506 1506 1506 1505 1504 1502 1500 1498 1495 1493 1491 1488 1486 1483 1481 1479 1477 1474 1472 1471 1469 1468 1466 1465 1464 1463 1461 1461 1460 1459 1459 1459 1459 1460 1461 1462 1464
1497 1503 1510 1519 1524 1528 1532 1529 1510 1508 1507 1506 1506 1506 1505 1503 1501 1499 1496 1494 1491 1489 1486 1484 1481 1478 1476 1474 1471 1469 1467 1465 1463 1461 1460 1459 1458 1458 1457 1456 1455 1454 1454 1453 1453 1454 1454 1456 1457